Weather History for KLWV - June, 2013

Change the Weather History Date:

Saturday, June 1, 2013

  Actual Average Record
Temperature  
Mean Temperature 70 °F 71 °F  
Max Temperature 76 °F 81 °F 92 °F (1991)
Min Temperature 64 °F 60 °F 39 °F (2003)
Degree Days  
Heating Degree Days 0 1  
Month to date heating degree days 0 1  
Since 1 June heating degree days 0 1  
Since 1 July heating degree days 4927 4674  
Cooling Degree Days 5 7  
Month to date cooling degree days 5 7  
Year to date cooling degree days 173 146  
Since 1 June cooling degree days 5 7  
Growing Degree Days 20 (Base 50)    
Moisture  
Dew Point 64 °F    
Average Humidity 87    
Maximum Humidity 100    
Minimum Humidity 73    
Precipitation  
Precipitation 1.53 in 0.17 in 1.53 in (2013)
Month to date precipitation 1.53 0.17  
Year to date precipitation 26.56 17.73  
Sea Level Pressure  
Sea Level Pressure 29.87 in    
Wind  
Wind Speed 12 mph (SSW)    
Max Wind Speed 36 mph    
Max Gust Speed 46 mph    
Visibility 7 miles    
Events Fog , Rain , Thunderstorm    
T = Trace of Precipitation, MM = Missing Value Source: NWS Daily Summary

Daily Weather History Graph

Daily Weather History Graph

Search for Another Location

Airport or City:

Trip Planner

Search our weather history database for the weather conditions in past years. The results will help you decide how hot, cold, wet, or windy it might be!

Date:

Astronomy

Jun. 01, 2013 Rise Set
Actual Time 5:27 AM CDT 8:09 PM CDT
Civil Twilight 4:55 AM CDT 8:41 PM CDT
Nautical Twilight 4:16 AM CDT 9:20 PM CDT
Astronomical Twilight 3:32 AM CDT 10:04 PM CDT
Moon 1:19 AM CDT (6/1) 1:42 PM CDT (6/1)
Length of Visible Light 15h 45m
Length of Day
14h 42m
Last Quarter, 40% of the Moon is Illuminated
Jun 1
Last Quarter
Jun 8
New
Jun 16
First Quarter
Jun 23
Full
Jun 29
Last Quarter

Hourly Weather History & Observations

Time (CDT) Temp. Dew Point Humidity Pressure Visibility Wind Dir Wind Speed Gust Speed Precip Events Conditions
12:51 AM 75.2 °F 69.8 °F 83% 29.85 in 8.0 mi South 12.7 mph - N/A Thunderstorm Mostly Cloudy
12:53 AM 75.9 °F 70.0 °F 82% 29.84 in 8.0 mi South 13.8 mph - N/A Thunderstorm Overcast
1:15 AM 71.6 °F 64.4 °F 78% 29.90 in 7.0 mi WNW 31.1 mph 42.6 mph 0.00 in Rain , Thunderstorm Light Rain
1:20 AM 68.0 °F 64.4 °F 88% 29.93 in 1.8 mi West 28.8 mph 42.6 mph 0.07 in Rain , Thunderstorm Heavy Thunderstorms and Rain
1:25 AM 66.2 °F 62.6 °F 88% 29.93 in 0.5 mi WNW 35.7 mph 46.0 mph 0.45 in Fog , Rain , Thunderstorm Heavy Thunderstorms and Rain
1:34 AM 66.2 °F 64.4 °F 94% 29.94 in 0.5 mi WNW 20.7 mph 32.2 mph 0.73 in Fog , Rain , Thunderstorm Heavy Thunderstorms and Rain
1:39 AM 66.2 °F 64.4 °F 94% 29.91 in 1.0 mi WNW 15.0 mph 27.6 mph 0.84 in Rain , Thunderstorm Heavy Thunderstorms and Rain
1:53 AM 66.0 °F 64.0 °F 93% 29.87 in 2.5 mi NW 13.8 mph - 0.96 in Rain , Thunderstorm Rain
2:00 AM 66.2 °F 64.4 °F 94% 29.88 in 4.0 mi WNW 9.2 mph - 0.01 in Rain , Thunderstorm Light Rain
2:07 AM 66.2 °F 64.4 °F 94% 29.89 in 5.0 mi West 8.1 mph - 0.02 in Rain Light Rain
2:40 AM 66.2 °F 64.4 °F 94% 29.91 in 6.0 mi West 5.8 mph - 0.04 in Rain , Thunderstorm Light Thunderstorms and Rain
2:53 AM 66.0 °F 64.0 °F 93% 29.89 in 5.0 mi West 8.1 mph - 0.05 in Rain , Thunderstorm Light Thunderstorms and Rain
3:53 AM 66.0 °F 64.0 °F 93% 29.88 in 4.0 mi ESE 3.5 mph - 0.06 in Rain , Thunderstorm Rain
4:01 AM 66.2 °F 62.6 °F 88% 29.88 in 4.0 mi ESE 6.9 mph - 0.02 in Rain Rain
4:16 AM 64.4 °F 62.6 °F 94% 29.86 in 5.0 mi ESE 9.2 mph - 0.06 in Rain , Thunderstorm Light Thunderstorms and Rain
4:31 AM 64.4 °F 64.4 °F 100% 29.86 in 4.0 mi SE 8.1 mph - 0.10 in Rain Rain
4:53 AM 64.9 °F 64.0 °F 97% 29.86 in 5.0 mi ESE 8.1 mph - 0.15 in Rain Rain
5:53 AM 64.9 °F 64.0 °F 97% 29.85 in 7.0 mi South 12.7 mph - 0.11 in Rain , Thunderstorm Light Rain
6:14 AM 64.4 °F 64.4 °F 100% 29.88 in 8.0 mi South 12.7 mph - 0.01 in Rain Light Rain
6:53 AM 64.9 °F 64.0 °F 97% 29.88 in 5.0 mi South 10.4 mph - 0.07 in Rain Rain
7:53 AM 64.9 °F 64.0 °F 97% 29.89 in 5.0 mi South 11.5 mph - 0.09 in Rain Light Rain
8:44 AM 66.2 °F 64.4 °F 94% 29.91 in 9.0 mi South 12.7 mph 21.9 mph 0.01 in Rain Light Rain
8:53 AM 66.0 °F 64.9 °F 96% 29.92 in 10.0 mi South 15.0 mph - 0.01 in Rain Light Rain
9:06 AM 66.2 °F 64.4 °F 94% 29.95 in 9.0 mi SSW 19.6 mph 24.2 mph 0.00 in Rain Light Rain
9:34 AM 66.2 °F 64.4 °F 94% 29.94 in 7.0 mi SSW 16.1 mph - 0.00 in Rain Light Rain
9:53 AM 66.0 °F 64.9 °F 96% 29.94 in 5.0 mi SSW 16.1 mph 23.0 mph 0.01 in Rain Light Rain
10:53 AM 66.9 °F 66.0 °F 97% 29.91 in 9.0 mi South 16.1 mph - 0.01 in   Mostly Cloudy
11:15 AM 68.0 °F 66.2 °F 94% 29.89 in 8.0 mi South 17.3 mph 25.3 mph N/A   Mostly Cloudy
11:25 AM 68.0 °F 66.2 °F 94% 29.89 in 9.0 mi South 18.4 mph 24.2 mph N/A   Mostly Cloudy
11:53 AM 68.0 °F 64.0 °F 87% 29.86 in 8.0 mi South 20.7 mph 28.8 mph 0.00 in Rain Light Rain
12:53 PM 68.0 °F 64.0 °F 87% 29.81 in 10.0 mi SSE 16.1 mph 34.5 mph 0.00 in   Scattered Clouds
1:08 PM 68.0 °F 64.4 °F 88% 29.84 in 9.0 mi South 18.4 mph 27.6 mph 0.00 in Rain Light Rain
1:53 PM 68.0 °F 64.0 °F 87% 29.79 in 9.0 mi SSE 20.7 mph 26.5 mph 0.00 in Rain Light Rain
2:39 PM 69.8 °F 64.4 °F 83% 29.82 in 10.0 mi South 8.1 mph - 0.00 in Rain Light Rain
2:53 PM 70.0 °F 64.9 °F 84% 29.83 in 10.0 mi SW 9.2 mph - 0.00 in   Mostly Cloudy
3:34 PM 71.6 °F 64.4 °F 78% 29.83 in 10.0 mi SW 10.4 mph - 0.00 in   Mostly Cloudy
3:53 PM 72.0 °F 64.9 °F 78% 29.82 in 10.0 mi SSW 10.4 mph - 0.00 in   Clear
4:53 PM 72.0 °F 64.0 °F 76% 29.83 in 10.0 mi SSW 12.7 mph - N/A   Overcast
5:53 PM 73.0 °F 64.9 °F 76% 29.80 in 10.0 mi SSW 12.7 mph - N/A   Scattered Clouds
6:53 PM 72.0 °F 64.9 °F 78% 29.80 in 10.0 mi SSW 9.2 mph - N/A   Scattered Clouds
7:53 PM 71.1 °F 63.0 °F 75% 29.81 in 10.0 mi SSW 9.2 mph - N/A   Mostly Cloudy
8:53 PM 69.1 °F 63.0 °F 81% 29.82 in 10.0 mi SSW 6.9 mph - N/A   Clear
9:53 PM 68.0 °F 63.0 °F 84% 29.84 in 9.0 mi SSW 8.1 mph - N/A   Partly Cloudy
10:53 PM 68.0 °F 63.0 °F 84% 29.87 in 9.0 mi West 10.4 mph - 0.01 in   Overcast
11:53 PM 66.0 °F 61.0 °F 84% 29.87 in 10.0 mi SW 6.9 mph - N/A   Scattered Clouds